Location: Beadle
(51.4667°N, 109.0000°W)
Time: 09:17:59
(UTC+00:00)

deb Explorer IX - Pass Details

Date: 05 June 2022
Orbit: 535 x 1068 km, 38.8° (Epoch: 04 July)

Event Time Altitude Azimuth Distance (km) Brightness Sun altitude
Rises 15:40:29 0° 235° (SW) 3,781 ? 40.0°
Reaches altitude 10° 15:43:35 10° 224° (SW) 2,868 ? 40.4°
Maximum altitude 15:49:18 27° 170° (S) 1,924 ? 41.3°
Drops below altitude 10° 15:55:01 10° 116° (ESE) 2,865 ? 42.2°
Sets 15:58:05 0° 105° (ESE) 3,777 ? 42.6°
